User: anonymous   Login
Location: NJAA Observatory
(40.6819°N, 74.8979°W)
Time: 04:38:01
(UTC-05:00)
Language:

Cosmos 220 Rocket - Orbit

View from above orbital plane
View from above orbital plane
View from above satellite
View from above satellite

Ground track
Ground track

The orbit data is extracted from the following two-line orbital elements,

1 03230U 68040B   14351.47004598  .00003071  00000-0  33177-3 0  4380
2 03230 074.0386 268.2903 0029873 103.6866 256.7644 14.88486056499610
Epoch (UTC): 17 December 2014 11:16:51
Eccentricity: 0.0029873
inclination: 74.0386°
perigee height: 582 km
apogee height: 623 km
right ascension of ascending node: 268.2903°
argument of perigee: 103.6866°
revolutions per day: 14.88486056
mean anomaly at epoch: 256.7644°
orbit number at epoch: 49961

The dashed part of the orbit path shows where the satellite is in the earth's shadow,  

DLR